,,,PA_Meas_PMT16A,,PR_Meas_QMR101_102,,RH_Meas_QMH101,,SR_Meas_QMS101,,TA_Meas_QMH101,,GenWind,,GenWind,
date,time,status,PA,status,PR,status,RH,status,SR,status,TA,status,DirAvg,status,SpdAvg,
2010-07-23, 00:00:05,VALID,1004.37,VALID,0,VALID,91.3864,VALID,0,VALID,25.4948,VALID,358,VALID,1.37812,
2010-07-23, 00:01:05,VALID,1004.29,VALID,0,VALID,90.0666,VALID,0,VALID,25.5337,VALID,351,VALID,1.70742,
2010-07-23, 00:02:05,VALID,1004.3,VALID,0,VALID,89.5097,VALID,0,VALID,25.5337,VALID,9,VALID,1.14453,
2010-07-23, 00:03:05,VALID,1004.33,VALID,0,VALID,87.5033,VALID,0,VALID,25.5532,VALID,29,VALID,2.34922,
2010-07-23, 00:04:05,VALID,1004.35,VALID,0,VALID,86.6031,VALID,0,VALID,25.5727,VALID,352,VALID,1.93984,
2010-07-23, 00:05:05,VALID,1004.4,VALID,0,VALID,86.2445,VALID,0,VALID,25.5727,VALID,23,VALID,0.977734,
2010-07-23, 00:06:05,VALID,1004.41,VALID,0,VALID,86.3894,VALID,0,VALID,25.5532,VALID,6,VALID,0.99375,
2010-07-23, 00:07:05,VALID,1004.42,VALID,0,VALID,86.3208,VALID,0,VALID,25.5532,VALID,21,VALID,0.548437,
2010-07-23, 00:08:05,VALID,1004.39,VALID,0,VALID,86.4123,VALID,0,VALID,25.5142,VALID,3,VALID,0.951563,
2010-07-23, 00:09:05,VALID,1004.37,VALID,0,VALID,86.5954,VALID,0,VALID,25.5357,VALID,4,VALID,0.900781,
2010-07-23, 00:10:05,VALID,1004.33,VALID,0,VALID,86.5115,VALID,0,VALID,25.4948,VALID,352,VALID,0.836328,
2010-07-23, 00:11:05,VALID,1004.35,VALID,0,VALID,86.1606,VALID,0,VALID,25.4363,VALID,45,VALID,1.18008,
2010-07-23, 00:12:05,VALID,1004.31,VALID,0,VALID,86.3513,VALID,0,VALID,25.4169,VALID,25,VALID,0.791797,
2010-07-23, 00:13:05,VALID,1004.35,VALID,0,VALID,86.2826,VALID,0,VALID,25.3974,VALID,29,VALID,0.714063,
2010-07-23, 00:14:05,VALID,1004.37,VALID,0,VALID,85.7639,VALID,0,VALID,25.3779,VALID,53,VALID,0.789453,
2010-07-23, 00:15:05,VALID,1004.41,VALID,0,VALID,85.8325,VALID,0,VALID,25.3974,VALID,21,VALID,0.861328,
2010-07-23, 00:16:05,VALID,1004.39,VALID,0,VALID,85.8249,VALID,0,VALID,25.376,VALID,45,VALID,0.224609,
2010-07-23, 00:17:05,VALID,1004.35,VALID,0,VALID,85.4206,VALID,0,VALID,25.376,VALID,23,VALID,1.45078,
2010-07-23, 00:18:05,VALID,1004.29,VALID,0,VALID,85.3519,VALID,0,VALID,25.3955,VALID,77,VALID,0.699609,
2010-07-23, 00:19:05,VALID,1004.3,VALID,0,VALID,85.3367,VALID,0,VALID,25.4169,VALID,35,VALID,0.632422,
2010-07-23, 00:20:05,VALID,1004.27,VALID,0,VALID,85.4816,VALID,0,VALID,25.3974,VALID,26,VALID,0.321484,
2010-07-23, 00:21:05,VALID,1004.28,VALID,0,VALID,85.6266,VALID,0,VALID,25.3779,VALID,30,VALID,0.681641,
2010-07-23, 00:22:05,VALID,1004.3,VALID,0,VALID,85.6189,VALID,0,VALID,25.376,VALID,28,VALID,0.467578,
2010-07-23, 00:23:05,VALID,1004.29,VALID,0,VALID,85.7257,VALID,0,VALID,25.3584,VALID,28,VALID,0.276563,
2010-07-23, 00:24:05,VALID,1004.29,VALID,0,VALID,85.947,VALID,0,VALID,25.339,VALID,28,VALID,0.413281,
2010-07-23, 00:25:05,VALID,1004.28,VALID,0,VALID,86.2292,VALID,0,VALID,25.2806,VALID,56,VALID,0.5125,
2010-07-23, 00:26:05,VALID,1004.27,VALID,0,VALID,86.5039,VALID,0,VALID,25.2416,VALID,46,VALID,0.272266,
2010-07-23, 00:27:05,VALID,1004.3,VALID,0,VALID,86.8395,VALID,0,VALID,25.2416,VALID,45,VALID,0.65625,
2010-07-23, 00:28:05,VALID,1004.28,VALID,0,VALID,86.9769,VALID,0,VALID,25.2611,VALID,43,VALID,0.394531,
2010-07-23, 00:29:05,VALID,1004.33,VALID,0,VALID,86.9769,VALID,0,VALID,25.2592,VALID,43,VALID,0.282422,
2010-07-23, 00:30:05,VALID,1004.27,VALID,0,VALID,86.9616,VALID,0,VALID,25.263,VALID,76,VALID,0,
2010-07-23, 00:31:05,VALID,1004.26,VALID,0,VALID,87.0455,VALID,0,VALID,25.2825,VALID,30,VALID,0,
2010-07-23, 00:32:05,VALID,1004.23,VALID,0,VALID,86.9769,VALID,0,VALID,25.3,VALID,35,VALID,0.532812,
2010-07-23, 00:33:05,VALID,1004.22,VALID,0,VALID,86.8395,VALID,0,VALID,25.3,VALID,35,VALID,0.453516,
2010-07-23, 00:34:05,VALID,1004.21,VALID,0,VALID,86.9464,VALID,0,VALID,25.2806,VALID,35,VALID,0.392969,
2010-07-23, 00:35:05,VALID,1004.21,VALID,0,VALID,87.3202,VALID,0,VALID,25.2416,VALID,27,VALID,0.291016,
2010-07-23, 00:36:05,VALID,1004.22,VALID,0,VALID,87.5872,VALID,0,VALID,25.2027,VALID,27,VALID,0.021875,
2010-07-23, 00:37:05,VALID,1004.17,VALID,0,VALID,87.8008,VALID,0,VALID,25.1618,VALID,27,VALID,0,
2010-07-23, 00:38:05,VALID,1004.15,VALID,0,VALID,88.0296,VALID,0,VALID,25.1442,VALID,28,VALID,0,
2010-07-23, 00:39:05,VALID,1004.12,VALID,0,VALID,88.2204,VALID,0,VALID,25.1053,VALID,28,VALID,0,
2010-07-23, 00:40:05,VALID,1004.07,VALID,0,VALID,88.5637,VALID,0,VALID,25.0663,VALID,28,VALID,0.09375,
2010-07-23, 00:41:05,VALID,1004.07,VALID,0,VALID,88.8917,VALID,0,VALID,25.006,VALID,27,VALID,0.296484,
2010-07-23, 00:42:05,VALID,1004.05,VALID,0,VALID,89.6622,VALID,0,VALID,24.969,VALID,27,VALID,0.450391,
2010-07-23, 00:43:05,VALID,1004.07,VALID,0,VALID,91.0965,VALID,0,VALID,24.9106,VALID,27,VALID,0.364062,
2010-07-23, 00:44:05,VALID,1004.05,VALID,0,VALID,96.6274,VALID,0,VALID,24.8327,VALID,27,VALID,0.574219,
2010-07-23, 00:45:05,VALID,1004,VALID,0,VALID,104,VALID,0,VALID,24.7743,VALID,27,VALID,0.583594,
2010-07-23, 00:46:05,VALID,1003.99,VALID,0,VALID,104,VALID,0,VALID,24.714,VALID,27,VALID,0.185156,
2010-07-23, 00:47:05,VALID,1004.01,VALID,0,VALID,104,VALID,0,VALID,24.6964,VALID,27,VALID,0,
2010-07-23, 00:48:05,VALID,1003.99,VALID,0,VALID,104,VALID,0,VALID,24.6769,VALID,27,VALID,0,
2010-07-23, 00:49:05,VALID,1003.97,VALID,0,VALID,104,VALID,0,VALID,24.6964,VALID,26,VALID,0,
2010-07-23, 00:50:05,VALID,1003.97,VALID,0,VALID,104,VALID,0,VALID,24.6945,VALID,26,VALID,0,
2010-07-23, 00:51:05,VALID,1003.96,VALID,0,VALID,104,VALID,0,VALID,24.6964,VALID,26,VALID,0,
2010-07-23, 00:52:05,VALID,1003.95,VALID,0,VALID,104,VALID,0,VALID,24.7177,VALID,26,VALID,0,
2010-07-23, 00:53:05,VALID,1003.97,VALID,0,VALID,104,VALID,0,VALID,24.6574,VALID,26,VALID,0,
2010-07-23, 00:54:05,VALID,1003.99,VALID,0,VALID,104,VALID,0,VALID,24.6361,VALID,56,VALID,0,
2010-07-23, 00:55:05,VALID,1003.97,VALID,0,VALID,104,VALID,0,VALID,24.6166,VALID,56,VALID,0,
2010-07-23, 00:56:05,VALID,1003.98,VALID,0,VALID,104,VALID,0,VALID,24.5777,VALID,56,VALID,0,
2010-07-23, 00:57:05,VALID,1003.98,VALID,0,VALID,104,VALID,0,VALID,24.5796,VALID,66,VALID,0,
2010-07-23, 00:58:05,VALID,1003.99,VALID,0,VALID,104,VALID,0,VALID,24.5193,VALID,71,VALID,0.473437,
2010-07-23, 00:59:05,VALID,1003.96,VALID,0,VALID,104,VALID,0,VALID,24.5406,VALID,45,VALID,0.414844,
2010-07-23, 01:00:05,VALID,1003.96,VALID,0,INVALID,109.024,VALID,0,VALID,24.4998,VALID,45,VALID,0.409766,
2010-07-23, 01:01:05,VALID,1003.92,VALID,0,INVALID,109.078,VALID,0,VALID,24.4998,VALID,42,VALID,0.405078,
2010-07-23, 01:02:05,VALID,1003.88,VALID,0,INVALID,109.131,VALID,0,VALID,24.4998,VALID,23,VALID,0.905469,
2010-07-23, 01:03:05,VALID,1003.84,VALID,0,INVALID,109.162,VALID,0,VALID,24.599,VALID,353,VALID,1.16172,
2010-07-23, 01:04:05,VALID,1003.85,VALID,0,VALID,104,VALID,0,VALID,24.7529,VALID,355,VALID,1.11719,
2010-07-23, 01:05:05,VALID,1003.87,VALID,0,VALID,104,VALID,0,VALID,24.9495,VALID,349,VALID,1.13047,
2010-07-23, 01:06:05,VALID,1003.85,VALID,0,VALID,103.02,VALID,0,VALID,25.1248,VALID,357,VALID,0.827734,
2010-07-23, 01:07:05,VALID,1003.91,VALID,0,VALID,92.2103,VALID,0,VALID,25.2027,VALID,356,VALID,0.996094,
2010-07-23, 01:08:05,VALID,1003.91,VALID,0,VALID,90.1429,VALID,0,VALID,25.2611,VALID,15,VALID,1.01563,
2010-07-23, 01:09:05,VALID,1003.92,VALID,0,VALID,88.6857,VALID,0,VALID,25.339,VALID,34,VALID,1.09844,
2010-07-23, 01:10:05,VALID,1003.94,VALID,0,VALID,88.0831,VALID,0,VALID,25.3955,VALID,22,VALID,1.11289,
2010-07-23, 01:11:05,VALID,1003.92,VALID,0,VALID,87.8313,VALID,0,VALID,25.4558,VALID,26,VALID,0.839063,
2010-07-23, 01:12:05,VALID,1003.89,VALID,0,VALID,87.4575,VALID,0,VALID,25.4948,VALID,12,VALID,1.27969,
2010-07-23, 01:13:05,VALID,1003.84,VALID,0,VALID,87.1218,VALID,0,VALID,25.5727,VALID,22,VALID,1.08438,
2010-07-23, 01:14:05,VALID,1003.85,VALID,0,VALID,86.8167,VALID,0,VALID,25.6116,VALID,2,VALID,1.22852,
2010-07-23, 01:15:05,VALID,1003.87,VALID,0,VALID,86.6641,VALID,0,VALID,25.67,VALID,44,VALID,1.20781,
2010-07-23, 01:16:05,VALID,1003.82,VALID,0,VALID,86.3513,VALID,0,VALID,25.7071,VALID,30,VALID,0.876562,
2010-07-23, 01:17:05,VALID,1003.81,VALID,0,VALID,86.0004,VALID,0,VALID,25.746,VALID,5,VALID,0.857422,
2010-07-23, 01:18:05,VALID,1003.82,VALID,0,VALID,86.1224,VALID,0,VALID,25.8064,VALID,30,VALID,0.930078,
2010-07-23, 01:19:05,VALID,1003.81,VALID,0,VALID,86.0461,VALID,0,VALID,25.7869,VALID,28,VALID,0.826953,
2010-07-23, 01:20:05,VALID,1003.84,VALID,0,VALID,86.1301,VALID,0,VALID,25.7674,VALID,57,VALID,0.673047,
2010-07-23, 01:21:05,VALID,1003.85,VALID,0,VALID,86.0919,VALID,0,VALID,25.7265,VALID,84,VALID,0.434766,
2010-07-23, 01:22:05,VALID,1003.88,VALID,0,VALID,86.214,VALID,0,VALID,25.7285,VALID,80,VALID,0.0484375,
2010-07-23, 01:23:05,VALID,1003.9,VALID,0,VALID,86.1911,VALID,0,VALID,25.6486,VALID,56,VALID,0.467578,
2010-07-23, 01:24:05,VALID,1003.88,VALID,0,VALID,86.0995,VALID,0,VALID,25.6506,VALID,100,VALID,0.511719,
2010-07-23, 01:25:05,VALID,1003.84,VALID,0,VALID,86.0995,VALID,0,VALID,25.6311,VALID,100,VALID,0.654297,
2010-07-23, 01:26:05,VALID,1003.84,VALID,0,VALID,86.2826,VALID,0,VALID,25.5707,VALID,131,VALID,1.02188,
2010-07-23, 01:27:05,VALID,1003.79,VALID,0,VALID,86.481,VALID,0,VALID,25.5318,VALID,143,VALID,0.237891,
2010-07-23, 01:28:05,VALID,1003.79,VALID,0,VALID,86.7938,VALID,0,VALID,25.4753,VALID,148,VALID,0.913672,
2010-07-23, 01:29:05,VALID,1003.78,VALID,0,VALID,87.2362,VALID,0,VALID,25.376,VALID,148,VALID,0.569531,
2010-07-23, 01:30:05,VALID,1003.76,VALID,0,VALID,87.4575,VALID,0,VALID,25.2806,VALID,147,VALID,0.997656,
2010-07-23, 01:31:05,VALID,1003.74,VALID,0,VALID,88.0525,VALID,0,VALID,25.1618,VALID,148,VALID,0.670703,
2010-07-23, 01:32:05,VALID,1003.77,VALID,0,VALID,88.8536,VALID,0,VALID,25.1053,VALID,141,VALID,0.578516,
2010-07-23, 01:33:05,VALID,1003.77,VALID,0,VALID,89.9521,VALID,0,VALID,25.0079,VALID,141,VALID,0.517187,
2010-07-23, 01:34:05,VALID,1003.78,VALID,0,VALID,93.3012,VALID,0,VALID,24.9106,VALID,135,VALID,0.373047,
2010-07-23, 01:35:05,VALID,1003.76,VALID,0,VALID,101.006,VALID,0,VALID,24.8308,VALID,129,VALID,0.204297,
2010-07-23, 01:36:05,VALID,1003.76,VALID,0,VALID,104,VALID,0,VALID,24.7937,VALID,119,VALID,0.441016,
2010-07-23, 01:37:05,VALID,1003.75,VALID,0,VALID,104,VALID,0,VALID,24.7353,VALID,15,VALID,0.634375,
2010-07-23, 01:38:05,VALID,1003.74,VALID,0,VALID,104,VALID,0,VALID,24.6964,VALID,359,VALID,0.64375,
2010-07-23, 01:39:05,VALID,1003.75,VALID,0,VALID,104,VALID,0,VALID,24.6769,VALID,4,VALID,0.754687,
2010-07-23, 01:40:05,VALID,1003.73,VALID,0,VALID,104,VALID,0,VALID,24.638,VALID,44,VALID,0.650781,
2010-07-23, 01:41:05,VALID,1003.69,VALID,0,VALID,104,VALID,0,VALID,24.6574,VALID,30,VALID,0.846484,
2010-07-23, 01:42:05,VALID,1003.67,VALID,0,VALID,104,VALID,0,VALID,24.6769,VALID,54,VALID,0.600781,
2010-07-23, 01:43:05,VALID,1003.67,VALID,0,VALID,104,VALID,0,VALID,24.7159,VALID,34,VALID,0.475391,
2010-07-23, 01:44:05,VALID,1003.66,VALID,0,VALID,104,VALID,0,VALID,24.7724,VALID,23,VALID,0.609766,
2010-07-23, 01:45:05,VALID,1003.72,VALID,0,VALID,104,VALID,0,VALID,24.8716,VALID,42,VALID,0.401563,
2010-07-23, 01:46:05,VALID,1003.73,VALID,0,VALID,104,VALID,0,VALID,24.93,VALID,57,VALID,0.798437,
2010-07-23, 01:47:05,VALID,1003.75,VALID,0,VALID,104,VALID,0,VALID,25.0274,VALID,24,VALID,0.209766,
2010-07-23, 01:48:05,VALID,1003.77,VALID,0,VALID,104,VALID,0,VALID,25.0858,VALID,36,VALID,0.389453,
2010-07-23, 01:49:05,VALID,1003.78,VALID,0,VALID,104,VALID,0,VALID,25.1637,VALID,37,VALID,0.417188,
2010-07-23, 01:50:05,VALID,1003.79,VALID,0,VALID,100.701,VALID,0,VALID,25.2007,VALID,47,VALID,0.184375,
2010-07-23, 01:51:05,VALID,1003.78,VALID,0,VALID,95.7653,VALID,0,VALID,25.2007,VALID,68,VALID,0.492578,
2010-07-23, 01:52:05,VALID,1003.74,VALID,0,VALID,91.5466,VALID,0,VALID,25.2221,VALID,91,VALID,0.737109,
2010-07-23, 01:53:05,VALID,1003.7,VALID,0,VALID,90.654,VALID,0,VALID,25.1248,VALID,84,VALID,0.75625,
2010-07-23, 01:54:05,VALID,1003.66,VALID,0,VALID,91.2414,VALID,0,VALID,25.0274,VALID,81,VALID,0.182422,
2010-07-23, 01:55:05,VALID,1003.61,VALID,0,VALID,92.5765,VALID,0,VALID,24.9476,VALID,64,VALID,0.541016,
2010-07-23, 01:56:05,VALID,1003.59,VALID,0,VALID,96.6274,VALID,0,VALID,24.8697,VALID,64,VALID,0.183594,
2010-07-23, 01:57:05,VALID,1003.62,VALID,0,VALID,102.174,VALID,0,VALID,24.7919,VALID,88,VALID,0.715625,
2010-07-23, 01:58:05,VALID,1003.62,VALID,0,VALID,104,VALID,0,VALID,24.7743,VALID,91,VALID,0.756641,
2010-07-23, 01:59:05,VALID,1003.64,VALID,0,VALID,104,VALID,0,VALID,24.7353,VALID,96,VALID,0.6,
2010-07-23, 02:00:05,VALID,1003.65,VALID,0,VALID,104,VALID,0,VALID,24.7353,VALID,95,VALID,0.659375,
2010-07-23, 02:01:05,VALID,1003.57,VALID,0,VALID,104,VALID,0,VALID,24.7548,VALID,95,VALID,0.272266,
2010-07-23, 02:02:05,VALID,1003.54,VALID,0,VALID,104,VALID,0,VALID,24.7548,VALID,95,VALID,0.00429688,
2010-07-23, 02:03:05,VALID,1003.5,VALID,0,VALID,104,VALID,0,VALID,24.7353,VALID,95,VALID,0.348828,
2010-07-23, 02:04:05,VALID,1003.48,VALID,0,VALID,104,VALID,0,VALID,24.7159,VALID,95,VALID,0.332031,
2010-07-23, 02:05:05,VALID,1003.47,VALID,0,VALID,104,VALID,0,VALID,24.6769,VALID,95,VALID,0.335156,
2010-07-23, 02:06:05,VALID,1003.49,VALID,0,VALID,104,VALID,0,VALID,24.638,VALID,93,VALID,0.339453,
2010-07-23, 02:07:05,VALID,1003.52,VALID,0,VALID,104,VALID,0,VALID,24.599,VALID,38,VALID,0.624609,
2010-07-23, 02:08:05,VALID,1003.54,VALID,0,VALID,104,VALID,0,VALID,24.5601,VALID,38,VALID,0.672266,
2010-07-23, 02:09:05,VALID,1003.52,VALID,0,VALID,104,VALID,0,VALID,24.5212,VALID,38,VALID,0.361328,
2010-07-23, 02:10:05,VALID,1003.49,VALID,0,INVALID,109.047,VALID,0,VALID,24.4804,VALID,37,VALID,0.922656,
2010-07-23, 02:11:05,VALID,1003.48,VALID,0,INVALID,109.23,VALID,0,VALID,24.4804,VALID,36,VALID,0.266797,
2010-07-23, 02:12:05,VALID,1003.49,VALID,0,INVALID,109.276,VALID,0,VALID,24.5212,VALID,37,VALID,0.480859,
2010-07-23, 02:13:05,VALID,1003.5,VALID,0,INVALID,109.375,VALID,0,VALID,24.5406,VALID,37,VALID,0.387891,
2010-07-23, 02:14:05,VALID,1003.5,VALID,0,INVALID,109.398,VALID,0,VALID,24.5212,VALID,37,VALID,0.105078,
2010-07-23, 02:15:05,VALID,1003.45,VALID,0,INVALID,109.383,VALID,0,VALID,24.5017,VALID,37,VALID,0.0992187,
2010-07-23, 02:16:05,VALID,1003.4,VALID,0,INVALID,109.375,VALID,0,VALID,24.4822,VALID,37,VALID,0.484375,
2010-07-23, 02:17:05,VALID,1003.42,VALID,0,INVALID,109.429,VALID,0,VALID,24.4804,VALID,37,VALID,0.231641,
2010-07-23, 02:18:05,VALID,1003.44,VALID,0,INVALID,109.452,VALID,0,VALID,24.5017,VALID,37,VALID,0.470703,
2010-07-23, 02:19:05,VALID,1003.46,VALID,0,INVALID,109.474,VALID,0,VALID,24.5017,VALID,37,VALID,0.2625,
2010-07-23, 02:20:05,VALID,1003.48,VALID,0,INVALID,109.467,VALID,0,VALID,24.5212,VALID,37,VALID,0.312109,
2010-07-23, 02:21:05,VALID,1003.47,VALID,0,INVALID,109.52,VALID,0,VALID,24.4998,VALID,37,VALID,0.281641,
2010-07-23, 02:22:05,VALID,1003.46,VALID,0,INVALID,109.474,VALID,0,VALID,24.5212,VALID,37,VALID,0.158594,
2010-07-23, 02:23:05,VALID,1003.42,VALID,0,INVALID,109.49,VALID,0,VALID,24.5212,VALID,37,VALID,0,
2010-07-23, 02:24:05,VALID,1003.37,VALID,0,INVALID,109.505,VALID,0,VALID,24.5406,VALID,37,VALID,0.105859,
2010-07-23, 02:25:04,VALID,1003.36,VALID,0,INVALID,109.543,VALID,0,VALID,24.5212,VALID,37,VALID,0.0078125,
2010-07-23, 02:26:04,VALID,1003.36,VALID,0,INVALID,109.535,VALID,0,VALID,24.5017,VALID,37,VALID,0.114844,
2010-07-23, 02:27:04,VALID,1003.35,VALID,0,INVALID,109.535,VALID,0,VALID,24.4609,VALID,37,VALID,0.270703,
2010-07-23, 02:28:04,VALID,1003.37,VALID,0,INVALID,109.558,VALID,0,VALID,24.4628,VALID,37,VALID,0.0582031,
2010-07-23, 02:29:04,VALID,1003.34,VALID,0,INVALID,109.566,VALID,0,VALID,24.4433,VALID,37,VALID,0.342578,
2010-07-23, 02:30:04,VALID,1003.38,VALID,0,INVALID,109.558,VALID,0,VALID,24.4238,VALID,37,VALID,0.182812,
2010-07-23, 02:31:04,VALID,1003.38,VALID,0,INVALID,109.551,VALID,0,VALID,24.3849,VALID,36,VALID,0.319531,
2010-07-23, 02:32:04,VALID,1003.39,VALID,0,INVALID,109.551,VALID,0,VALID,24.3441,VALID,36,VALID,0,
2010-07-23, 02:33:04,VALID,1003.39,VALID,0,INVALID,109.558,VALID,0,VALID,24.3265,VALID,10,VALID,0.290625,
2010-07-23, 02:34:04,VALID,1003.43,VALID,0,INVALID,109.52,VALID,0,VALID,24.3265,VALID,10,VALID,0,
2010-07-23, 02:35:04,VALID,1003.46,VALID,0,INVALID,109.535,VALID,0,VALID,24.3265,VALID,10,VALID,0.00898437,
2010-07-23, 02:36:04,VALID,1003.47,VALID,0,INVALID,109.558,VALID,0,VALID,24.2662,VALID,348,VALID,0.773047,
2010-07-23, 02:37:04,VALID,1003.51,VALID,0,INVALID,109.551,VALID,0,VALID,24.2662,VALID,360,VALID,0.412109,
2010-07-23, 02:38:04,VALID,1003.53,VALID,0,INVALID,109.543,VALID,0,VALID,24.307,VALID,337,VALID,0.729297,
2010-07-23, 02:39:04,VALID,1003.52,VALID,0,INVALID,109.543,VALID,0,VALID,24.307,VALID,350,VALID,0.517187,
2010-07-23, 02:40:04,VALID,1003.53,VALID,0,INVALID,109.528,VALID,0,VALID,24.2857,VALID,351,VALID,0.778906,
2010-07-23, 02:41:04,VALID,1003.5,VALID,0,INVALID,109.52,VALID,0,VALID,24.2875,VALID,352,VALID,0.549219,
2010-07-23, 02:42:04,VALID,1003.47,VALID,0,INVALID,109.49,VALID,0,VALID,24.2468,VALID,352,VALID,0.423438,
2010-07-23, 02:43:04,VALID,1003.44,VALID,0,INVALID,109.52,VALID,0,VALID,24.2681,VALID,352,VALID,0.651172,
2010-07-23, 02:44:04,VALID,1003.42,VALID,0,INVALID,109.505,VALID,0,VALID,24.2273,VALID,357,VALID,0.744922,
2010-07-23, 02:45:04,VALID,1003.41,VALID,0,INVALID,109.497,VALID,0,VALID,24.2468,VALID,346,VALID,0.536719,
2010-07-23, 02:46:04,VALID,1003.48,VALID,0,INVALID,109.52,VALID,0.100563,VALID,24.2468,VALID,359,VALID,0.553516,
2010-07-23, 02:47:04,VALID,1003.49,VALID,0,INVALID,109.566,VALID,0,VALID,24.2273,VALID,358,VALID,0.522266,
2010-07-23, 02:48:04,VALID,1003.47,VALID,0,INVALID,109.558,VALID,0,VALID,24.2273,VALID,358,VALID,0.598437,
2010-07-23, 02:49:04,VALID,1003.4,VALID,0,INVALID,109.566,VALID,0,VALID,24.2291,VALID,353,VALID,0.638672,
2010-07-23, 02:50:04,VALID,1003.33,VALID,0,INVALID,109.528,VALID,0,VALID,24.2078,VALID,347,VALID,0.799609,
2010-07-23, 02:51:04,VALID,1003.32,VALID,0,INVALID,109.543,VALID,0,VALID,24.2291,VALID,340,VALID,0.205859,
2010-07-23, 02:52:04,VALID,1003.41,VALID,0,INVALID,109.535,VALID,0,VALID,24.2273,VALID,340,VALID,0.390625,
2010-07-23, 02:53:04,VALID,1003.49,VALID,0,INVALID,109.52,VALID,0,VALID,24.2681,VALID,4,VALID,0.430078,
2010-07-23, 02:54:04,VALID,1003.46,VALID,0,INVALID,109.528,VALID,0,VALID,24.2468,VALID,5,VALID,0.0640625,
2010-07-23, 02:55:04,VALID,1003.45,VALID,0,INVALID,109.535,VALID,0,VALID,24.2857,VALID,5,VALID,0,
2010-07-23, 02:56:04,VALID,1003.47,VALID,0,INVALID,109.513,VALID,0,VALID,24.3265,VALID,5,VALID,0.131641,
2010-07-23, 02:57:04,VALID,1003.47,VALID,0,INVALID,109.513,VALID,0,VALID,24.2839,VALID,321,VALID,0.334375,
2010-07-23, 02:58:04,VALID,1003.47,VALID,0,INVALID,109.535,VALID,0,VALID,24.3052,VALID,321,VALID,0.316797,
2010-07-23, 02:59:04,VALID,1003.48,VALID,0,INVALID,109.558,VALID,0,VALID,24.3654,VALID,321,VALID,0.0878906,
2010-07-23, 03:00:04,VALID,1003.45,VALID,0,INVALID,109.574,VALID,0,VALID,24.3636,VALID,321,VALID,0.172656,
2010-07-23, 03:01:04,VALID,1003.48,VALID,0,INVALID,109.589,VALID,0,VALID,24.383,VALID,321,VALID,0,
2010-07-23, 03:02:04,VALID,1003.52,VALID,0,INVALID,109.596,VALID,0,VALID,24.383,VALID,321,VALID,0,
2010-07-23, 03:03:04,VALID,1003.53,VALID,0,INVALID,109.612,VALID,0,VALID,24.3636,VALID,321,VALID,0,
2010-07-23, 03:04:04,VALID,1003.52,VALID,0,INVALID,109.635,VALID,0,VALID,24.3422,VALID,321,VALID,0,
2010-07-23, 03:05:04,VALID,1003.54,VALID,0,INVALID,109.65,VALID,0,VALID,24.3459,VALID,321,VALID,0,
2010-07-23, 03:06:04,VALID,1003.53,VALID,0,INVALID,109.627,VALID,0,VALID,24.2857,VALID,321,VALID,0,
2010-07-23, 03:07:04,VALID,1003.54,VALID,0,INVALID,109.581,VALID,0,VALID,24.2273,VALID,321,VALID,0,
2010-07-23, 03:08:04,VALID,1003.51,VALID,0,INVALID,109.574,VALID,0,VALID,24.2078,VALID,116,VALID,0.652734,
2010-07-23, 03:09:04,VALID,1003.49,VALID,0,INVALID,109.566,VALID,0,VALID,24.2486,VALID,116,VALID,0.35625,
2010-07-23, 03:10:04,VALID,1003.45,VALID,0,INVALID,109.589,VALID,0,VALID,24.2291,VALID,116,VALID,0.433594,
2010-07-23, 03:11:04,VALID,1003.4,VALID,0,INVALID,109.604,VALID,0,VALID,24.2097,VALID,116,VALID,0.311719,
2010-07-23, 03:12:04,VALID,1003.4,VALID,0,INVALID,109.604,VALID,0,VALID,24.1707,VALID,116,VALID,0,
2010-07-23, 03:13:04,VALID,1003.43,VALID,0,INVALID,109.558,VALID,0,VALID,24.1902,VALID,116,VALID,0,
2010-07-23, 03:14:04,VALID,1003.44,VALID,0,INVALID,109.558,VALID,0,VALID,24.1707,VALID,116,VALID,0,
2010-07-23, 03:15:04,VALID,1003.47,VALID,0,INVALID,109.574,VALID,0,VALID,24.1494,VALID,116,VALID,0.170703,
2010-07-23, 03:16:04,VALID,1003.51,VALID,0,INVALID,109.528,VALID,0,VALID,24.1494,VALID,116,VALID,0,
2010-07-23, 03:17:04,VALID,1003.46,VALID,0,INVALID,109.513,VALID,0,VALID,24.13,VALID,116,VALID,0.289453,
2010-07-23, 03:18:04,VALID,1003.41,VALID,0,INVALID,109.444,VALID,0,VALID,24.1494,VALID,116,VALID,0.48125,
2010-07-23, 03:19:04,VALID,1003.4,VALID,0,INVALID,109.368,VALID,0,VALID,24.1884,VALID,116,VALID,0.133203,
2010-07-23, 03:20:04,VALID,1003.39,VALID,0,INVALID,109.345,VALID,0,VALID,24.1884,VALID,116,VALID,0,
2010-07-23, 03:21:04,VALID,1003.42,VALID,0,INVALID,109.329,VALID,0,VALID,24.2078,VALID,116,VALID,0,
2010-07-23, 03:22:04,VALID,1003.39,VALID,0,INVALID,109.368,VALID,0,VALID,24.1884,VALID,116,VALID,0.150781,
2010-07-23, 03:23:04,VALID,1003.45,VALID,0,INVALID,109.322,VALID,0,VALID,24.2078,VALID,116,VALID,0.0878906,
2010-07-23, 03:24:04,VALID,1003.49,VALID,0,INVALID,109.246,VALID,0,VALID,24.2486,VALID,116,VALID,0,
2010-07-23, 03:25:04,VALID,1003.52,VALID,0,INVALID,109.162,VALID,0,VALID,24.2875,VALID,116,VALID,0,
2010-07-23, 03:26:04,VALID,1003.53,VALID,0,INVALID,109.162,VALID,0,VALID,24.3052,VALID,116,VALID,0,
2010-07-23, 03:27:04,VALID,1003.52,VALID,0,INVALID,109.23,VALID,0,VALID,24.3052,VALID,116,VALID,0,
2010-07-23, 03:28:04,VALID,1003.49,VALID,0,INVALID,109.314,VALID,0,VALID,24.3265,VALID,116,VALID,0,
2010-07-23, 03:29:04,VALID,1003.48,VALID,0,INVALID,109.398,VALID,0,VALID,24.2857,VALID,116,VALID,0.286719,
2010-07-23, 03:30:04,VALID,1003.48,VALID,0,INVALID,109.482,VALID,0,VALID,24.2468,VALID,116,VALID,0.184375,
2010-07-23, 03:31:04,VALID,1003.47,VALID,0,INVALID,109.497,VALID,0,VALID,24.2078,VALID,116,VALID,0,
2010-07-23, 03:32:04,VALID,1003.52,VALID,0,INVALID,109.535,VALID,0,VALID,24.1689,VALID,116,VALID,0,
2010-07-23, 03:33:04,VALID,1003.52,VALID,0,INVALID,109.513,VALID,0,VALID,24.1707,VALID,116,VALID,0.00390625,
2010-07-23, 03:34:04,VALID,1003.48,VALID,0,INVALID,109.513,VALID,0,VALID,24.1494,VALID,116,VALID,0.274609,
2010-07-23, 03:35:04,VALID,1003.44,VALID,0,INVALID,109.505,VALID,0,VALID,24.1318,VALID,116,VALID,0.0691406,
2010-07-23, 03:36:04,VALID,1003.42,VALID,0,INVALID,109.474,VALID,0,VALID,24.1105,VALID,116,VALID,0,
2010-07-23, 03:37:04,VALID,1003.45,VALID,0,INVALID,109.497,VALID,0,VALID,24.091,VALID,116,VALID,0.0816406,
2010-07-23, 03:38:04,VALID,1003.44,VALID,0,INVALID,109.444,VALID,0,VALID,24.1123,VALID,116,VALID,0,
2010-07-23, 03:39:04,VALID,1003.47,VALID,0,INVALID,109.352,VALID,0,VALID,24.1105,VALID,76,VALID,0,
2010-07-23, 03:40:04,VALID,1003.45,VALID,0,INVALID,109.299,VALID,0,VALID,24.1105,VALID,76,VALID,0,
2010-07-23, 03:41:04,VALID,1003.44,VALID,0,INVALID,109.207,VALID,0,VALID,24.13,VALID,76,VALID,0,
2010-07-23, 03:42:04,VALID,1003.43,VALID,0,INVALID,109.131,VALID,0,VALID,24.1494,VALID,76,VALID,0,
2010-07-23, 03:43:04,VALID,1003.41,VALID,0,INVALID,109.101,VALID,0.100563,VALID,24.1902,VALID,76,VALID,0,
2010-07-23, 03:44:04,VALID,1003.44,VALID,0,INVALID,109.101,VALID,0,VALID,24.1884,VALID,76,VALID,0,
2010-07-23, 03:45:04,VALID,1003.45,VALID,0,INVALID,109.146,VALID,0,VALID,24.1689,VALID,76,VALID,0,
2010-07-23, 03:46:04,VALID,1003.46,VALID,0,INVALID,109.185,VALID,0,VALID,24.1494,VALID,76,VALID,0,
2010-07-23, 03:47:04,VALID,1003.46,VALID,0,INVALID,109.23,VALID,0,VALID,24.1494,VALID,76,VALID,0,
2010-07-23, 03:48:04,VALID,1003.47,VALID,0,INVALID,109.307,VALID,0,VALID,24.1105,VALID,76,VALID,0,